User: anonymous   Login
Location: Unspecified
(0.0000°N, 0.0000°E)
Time: 20:17:40
(UTC+02:00)
Language:

Delta 2 Rocket - Orbit

View from above orbital plane
View from above orbital plane
View from above satellite
View from above satellite

Ground track
Ground track

The orbit data is extracted from the following two-line orbital elements,

1 20453U 90008B   15117.43226837  .00003887  00000-0  23739-3 0  9994
2 20453 035.6253 129.9839 0307051 165.2445 195.7469 14.78277444332225
Epoch (UTC): 27 April 2015 10:22:27
Eccentricity: 0.0307051
inclination: 35.6253°
perigee height: 419 km
apogee height: 850 km
right ascension of ascending node: 129.9839°
argument of perigee: 165.2445°
revolutions per day: 14.78277444
mean anomaly at epoch: 195.7469°
orbit number at epoch: 33222

The dashed part of the orbit path shows where the satellite is in the earth's shadow,  

DLR